Weather History for Burlington, NC

Change the Weather History Date:

Wednesday, January 2, 2013

  Actual Average Record
Temperature  
Mean Temperature 44 °F -  
Max Temperature 48 °F 50 °F 54 °F (2015)
Min Temperature 39 °F 30 °F 39 °F (2015)
Degree Days  
Heating Degree Days 22    
Moisture  
Dew Point 40 °F    
Average Humidity 85    
Maximum Humidity 100    
Minimum Humidity 66    
Precipitation  
Precipitation 0.17 in - - ()
Sea Level Pressure  
Sea Level Pressure 30.04 in    
Wind  
Wind Speed 4 mph (NNE)    
Max Wind Speed 10 mph    
Max Gust Speed -    
Visibility 8 miles    
Events Fog , Rain    
Averages and records for this station are not official NWS values.
T = Trace of Precipitation, MM = Missing Value Source: NWS Daily Summary

Daily Weather History Graph

Daily Weather History Graph

Search for Another Location

Airport:

Trip Planner

Search our weather history database for the weather conditions in past years. The results will help you decide how hot, cold, wet, or windy it might be!

Date:

Astronomy

Jan. 02, 2013 Rise Set
Actual Time 7:28 AM EST 5:15 PM EST
Civil Twilight 7:00 AM EST 5:43 PM EST
Nautical Twilight 6:28 AM EST 6:15 PM EST
Astronomical Twilight 5:57 AM EST 6:47 PM EST
Moon 10:35 PM EST (1/2) 10:19 AM EST (1/2)
Length of Visible Light 10h 43m
Length of Day
9h 46m
Waning Gibbous, 75% of the Moon is Illuminated
Jan 2
Waning Gibbous
Jan 4
Last Quarter
Jan 11
New
Jan 18
First Quarter
Jan 26
Full

Hourly Weather History & Observations

Time (EST) Temp. Windchill Dew Point Humidity Pressure Visibility Wind Dir Wind Speed Gust Speed Precip Events Conditions
12:08 AM 48.2 °F - 46.4 °F 93% 29.95 in 0.5 mi Calm Calm - 0.00 in Fog , Rain Light Rain
12:28 AM 48.2 °F - 46.4 °F 93% 29.94 in 0.5 mi Calm Calm - 0.02 in Fog , Rain Light Rain
12:39 AM 48.2 °F - 46.4 °F 93% 29.93 in 1.0 mi Calm Calm - 0.02 in Rain Light Rain
12:54 AM 48.0 °F - 46.9 °F 96% 29.93 in 0.8 mi Calm Calm - 0.03 in Rain Light Rain
1:07 AM 48.2 °F - 46.4 °F 93% 29.92 in 1.2 mi Calm Calm - 0.01 in Rain Light Rain
1:37 AM 46.4 °F 45.2 °F 46.4 °F 100% 29.92 in 2.5 mi NNE 3.5 mph - 0.03 in Rain Light Rain
1:54 AM 46.9 °F - 46.0 °F 97% 29.93 in 2.5 mi North 4.6 mph - 0.04 in Rain Light Rain
2:01 AM 46.4 °F 44.3 °F 46.4 °F 100% 29.93 in 3.0 mi North 4.6 mph - 0.01 in Rain Light Rain
2:54 AM 46.9 °F - 46.0 °F 97% 29.92 in 6.0 mi NE 6.9 mph - 0.06 in Rain Light Rain
3:20 AM 46.4 °F 42.9 °F 44.6 °F 93% 29.95 in 9.0 mi North 6.9 mph - 0.01 in Rain Light Rain
3:54 AM 45.0 °F 39.7 °F 44.1 °F 97% 29.95 in 7.0 mi North 10.4 mph - 0.01 in Rain Light Rain
4:45 AM 44.6 °F 39.7 °F 42.8 °F 93% 29.96 in 4.0 mi NNE 9.2 mph - 0.02 in Rain Light Rain
4:54 AM 44.1 °F 39.5 °F 42.1 °F 93% 29.97 in 5.0 mi North 8.1 mph - 0.02 in Rain Light Rain
5:04 AM 42.8 °F 38.6 °F 42.8 °F 100% 29.97 in 4.0 mi NNE 6.9 mph - 0.00 in Rain Light Rain
5:18 AM 42.8 °F 41.1 °F 42.8 °F 100% 29.97 in 4.0 mi North 3.5 mph - 0.00 in Rain Light Rain
5:54 AM 43.0 °F 38.8 °F 42.1 °F 97% 30.00 in 4.0 mi NNE 6.9 mph - 0.01 in   Overcast
6:07 AM 42.8 °F 38.6 °F 41.0 °F 93% 29.99 in 4.0 mi NNE 6.9 mph - N/A   Overcast
6:26 AM 42.8 °F 38.6 °F 41.0 °F 93% 30.00 in 5.0 mi NNE 6.9 mph - N/A   Overcast
6:49 AM 42.8 °F 40.1 °F 39.2 °F 87% 29.99 in 10.0 mi NE 4.6 mph - N/A   Overcast
6:54 AM 42.1 °F 40.2 °F 39.9 °F 92% 30.00 in 10.0 mi East 3.5 mph - N/A   Overcast
7:54 AM 42.1 °F 40.2 °F 39.9 °F 92% 30.03 in 10.0 mi North 3.5 mph - N/A   Overcast
8:40 AM 42.8 °F 38.6 °F 39.2 °F 87% 30.05 in 10.0 mi North 6.9 mph - N/A   Overcast
8:54 AM 43.0 °F 39.5 °F 39.9 °F 89% 30.06 in 10.0 mi North 5.8 mph - N/A   Overcast
9:10 AM 42.8 °F 39.3 °F 39.2 °F 87% 30.07 in 10.0 mi North 5.8 mph - N/A   Overcast
9:40 AM 42.8 °F 38.0 °F 39.2 °F 87% 30.08 in 10.0 mi North 8.1 mph - N/A   Overcast
9:54 AM 43.0 °F 38.8 °F 39.9 °F 89% 30.09 in 10.0 mi North 6.9 mph - N/A   Overcast
10:21 AM 44.6 °F 39.7 °F 39.2 °F 81% 30.09 in 10.0 mi North 9.2 mph - N/A   Overcast
10:54 AM 45.0 °F 41.2 °F 37.9 °F 76% 30.10 in 10.0 mi North 6.9 mph - N/A   Mostly Cloudy
11:54 AM 45.0 °F 40.6 °F 37.0 °F 74% 30.09 in 10.0 mi North 8.1 mph - N/A   Mostly Cloudy
12:35 PM 46.4 °F 41.9 °F 37.4 °F 71% 30.06 in 10.0 mi NNE 9.2 mph - N/A   Scattered Clouds
12:54 PM 45.0 °F 40.6 °F 36.0 °F 71% 30.06 in 10.0 mi North 8.1 mph - N/A   Mostly Cloudy
1:54 PM 46.0 °F 43.9 °F 35.1 °F 66% 30.06 in 10.0 mi NNW 4.6 mph - N/A   Mostly Cloudy
2:11 PM 46.4 °F 43.5 °F 35.6 °F 66% 30.05 in 10.0 mi North 5.8 mph - N/A   Mostly Cloudy
2:54 PM 46.0 °F 44.8 °F 35.1 °F 66% 30.07 in 10.0 mi NE 3.5 mph - N/A   Mostly Cloudy
3:23 PM 46.4 °F 45.2 °F 35.6 °F 66% 30.07 in 10.0 mi NE 3.5 mph - N/A   Mostly Cloudy
3:47 PM 46.4 °F - 35.6 °F 66% 30.08 in 10.0 mi Calm Calm - N/A   Scattered Clouds
3:54 PM 46.0 °F - 35.1 °F 66% 30.08 in 10.0 mi Calm Calm - N/A   Partly Cloudy
4:54 PM 45.0 °F - 35.1 °F 68% 30.10 in 10.0 mi Calm Calm - N/A   Partly Cloudy
5:54 PM 43.0 °F 40.3 °F 36.0 °F 76% 30.11 in 10.0 mi ENE 4.6 mph - N/A   Clear
6:54 PM 43.0 °F - 35.1 °F 74% 30.14 in 10.0 mi Calm Calm - N/A   Scattered Clouds
7:54 PM 41.0 °F - 36.0 °F 82% 30.15 in 10.0 mi Calm Calm - N/A   Scattered Clouds
8:31 PM 41.0 °F 39.0 °F 35.6 °F 81% 30.14 in 10.0 mi NE 3.5 mph - N/A   Mostly Cloudy
8:46 PM 41.0 °F 39.0 °F 35.6 °F 81% 30.14 in 10.0 mi NE 3.5 mph - N/A   Overcast
8:54 PM 41.0 °F 39.0 °F 36.0 °F 82% 30.15 in 10.0 mi NNE 3.5 mph - N/A   Overcast
9:25 PM 42.8 °F - 35.6 °F 76% 30.15 in 10.0 mi Calm Calm - N/A   Overcast
9:54 PM 42.1 °F 40.2 °F 36.0 °F 79% 30.15 in 10.0 mi East 3.5 mph - N/A   Overcast
10:54 PM 42.1 °F - 36.0 °F 79% 30.18 in 10.0 mi Calm Calm - N/A   Overcast
11:29 PM 39.2 °F - 35.6 °F 87% 30.17 in 10.0 mi Calm Calm - N/A   Mostly Cloudy
11:54 PM 39.9 °F - 37.0 °F 89% 30.17 in 10.0 mi Calm Calm - N/A   Mostly Cloudy